SL-16 DEB, 22608

Orbit data source: Space-Track

SL-16 DEB, 22608 is space debris in LEO originally from a launch on Fri, 26 Mar 1993 UTC launched from the Tyuratam Missile And Space Complex (TTMTR). Debris objects in space refer to the collection of defunct objects orbiting the Earth. Examples of debris include non-operational satellites, rocket bodies, and fragments generated from explosions, collisions, or faulty payload assembly.

Loading next visibility...
Identifier
22608, 1993-016S
Orbit
LEO
Country
Flag of CISCIS
Related business
Manufacturer
Unknown
Mission
Spacecraft
Bus & Motor
Unknown
Mass
Unknown
Launch date (UTC)
1993-03-26 (33 years ago)
Launch vehicle
Unknown
Launch site
Tyuratam Missile And Space Complex (TTMTR)
Object type
Payload
Rocket body
Debris
Shape & HBR
Unknown shape, 0.3 m
Radar Cross Section
Medium (>0.1 m² and <1 m²)

Expand to show TLE details & history
Last TLE update: 6 hours ago

TLE from 6 hours ago
0 SL-16 DEB
1 22608U 93016S   25349.94524102  .00000018  00000-0  50836-4 0  9992
2 22608  71.0021 171.2073 0128452  98.5158  12.7365 13.84717177653576
Epoch: 2025-12-15T22:41Z
TLE epoch observation values (Epoch: 2025-12-15T22:41:08.824Z)
Latitude
61.65861°
Longitude
-113.33092°
Altitude
865.478 km
Speed
7.472 km/s
True Right ascension
20h 47m 10s
True Declination
61° 31' 01"
Sunlit
Object was in daylight at epoch
Visualization orbit readout
Latitude
Unknown
Longitude
Unknown
Altitude
Unknown
Speed
Unknown
Apparent Right ascension
Unknown
Apparent Declination
Unknown
Sunlit
N/A
Visualization observer readout
Local Sidereal Time
03:26:42
Azimuth
Unknown
Elevation
Unknown
Doppler factor
Unknown
Orbital elements
Apogee altitude
1,039.226 km
Perigee altitude
851.088 km
Semi-major axis
7,323.294 km
Eccentricity
0.01285
Inclination
71.0021°
RAAN
171.2073°
Arg. of periapsis
98.5158°
True anomaly
13.06618°
Mean anomaly
12.7365°
Eccentric anomaly
12.90082°
Mean motion
3.46325 °/min
Orbital period
103.95 mins
BSTAR
0.000050836
Loading maneuver chart data...
Computing Atmospheric mass density...
Loading historical data...
Loading historical data...
Loading historical data...
Loading historical data...
Loading historical data...
Loading historical data...
Loading historical data...

Documentation

Showing up to 5 results
|